Satellite: ASTRA 1B
Catalog number: 21139
Epoch time:      103023.00000000
Element set:     158 
Inclination:        0.0122 deg
RA of node:       319.8851 deg
Eccentricity:    0.0002995
Arg of perigee:    65.1991 deg
Mean anomaly:     116.0459 deg
Mean motion:    1.00273184 rev/day
Decay rate:    1.2399E-006 rev/day^2
Epoch rev:            3192
Checksum:              241

Satellite: METEOSAT 5 (MO
Catalog number: 21140
Epoch time:      103030.68126660
Element set:     698 
Inclination:        5.5881 deg
RA of node:        70.0793 deg
Eccentricity:    0.0002807
Arg of perigee:   145.6729 deg
Mean anomaly:     221.8118 deg
Mean motion:    1.00269480 rev/day
Decay rate:    9.0000E-008 rev/day^2
Epoch rev:            4586
Checksum:              285

Satellite: NOAA 12
Catalog number: 21263
Epoch time:      103030.87760394
Element set:     951 
Inclination:       98.6239 deg
RA of node:        20.8245 deg
Eccentricity:    0.0013767
Arg of perigee:    76.3432 deg
Mean anomaly:     283.9279 deg
Mean motion:   14.25066949 rev/day
Decay rate:    2.8100E-006 rev/day^2
Epoch rev:           60855
Checksum:              324

Satellite: OSCAR 22 (UoSA
Catalog number: 21575
Epoch time:      103031.57006708
Element set:     714 
Inclination:       98.1391 deg
RA of node:        24.6016 deg
Eccentricity:    0.0007150
Arg of perigee:   180.5626 deg
Mean anomaly:     179.5555 deg
Mean motion:   14.39140688 rev/day
Decay rate:    2.7099E-006 rev/day^2
Epoch rev:           60569
Checksum:              322

Satellite: METEOR 3-5
Catalog number: 21655
Epoch time:      103030.52938398
Element set:     495 
Inclination:       82.5538 deg
RA of node:        52.3158 deg
Eccentricity:    0.0012380
Arg of perigee:   244.5587 deg
Mean anomaly:     115.4252 deg
Mean motion:   13.16980338 rev/day
Decay rate:    5.1000E-007 rev/day^2
Epoch rev:           55097
Checksum:              312

Satellite: UARS
Catalog number: 21701
Epoch time:      103031.40320618
Element set:     813 
Inclination:       56.9812 deg
RA of node:       105.5749 deg
Eccentricity:    0.0005225
Arg of perigee:   115.3874 deg
Mean anomaly:     244.7642 deg
Mean motion:   15.02819040 rev/day
Decay rate:    7.2200E-006 rev/day^2
Epoch rev:           62298
Checksum:              271

Satellite: EUTELSAT 2-F3
Catalog number: 21803
Epoch time:      103029.89775103
Element set:     513 
Inclination:        2.5498 deg
RA of node:        89.3592 deg
Eccentricity:    0.0002612
Arg of perigee:   252.7497 deg
Mean anomaly:     131.1944 deg
Mean motion:    1.00270622 rev/day
Decay rate:    1.1800E-006 rev/day^2
Epoch rev:            3680
Checksum:              279

Satellite: INMARSAT 2-F3
Catalog number: 21814
Epoch time:      103030.57665984
Element set:     607 
Inclination:        1.7075 deg
RA of node:        57.7217 deg
Eccentricity:    0.0002918
Arg of perigee:   251.8388 deg
Mean anomaly:     245.3805 deg
Mean motion:    1.00270752 rev/day
Decay rate:    1.0200E-006 rev/day^2
Epoch rev:            4070
Checksum:              275

Satellite: INMARSAT 2-F4
Catalog number: 21940
Epoch time:      103027.10714674
Element set:     566 
Inclination:        2.3697 deg
RA of node:        19.1309 deg
Eccentricity:    0.0001839
Arg of perigee:   267.5415 deg
Mean anomaly:     346.8359 deg
Mean motion:    1.00269578 rev/day
Decay rate:   -3.5499E-006 rev/day^2
Epoch rev:            3945
Checksum:              326

Satellite: EUTELSAT 2-F4
Catalog number: 22028
Epoch time:      103028.97057872
Element set:     324 
Inclination:        1.6660 deg
RA of node:        92.8484 deg
Eccentricity:    0.0005860
Arg of perigee:   216.6759 deg
Mean anomaly:     155.3765 deg
Mean motion:    1.00272003 rev/day
Decay rate:   -1.0600E-006 rev/day^2
Epoch rev:            3157
Checksum:              283

Satellite: OSCAR 23 (KITS
Catalog number: 22077
Epoch time:      103029.89849370
Element set:     233 
Inclination:       66.0807 deg
RA of node:       166.9187 deg
Eccentricity:    0.0015313
Arg of perigee:   279.1532 deg
Mean anomaly:      80.7754 deg
Mean motion:   12.86407903 rev/day
Decay rate:   -3.7000E-007 rev/day^2
Epoch rev:           49177
Checksum:              326

Satellite: ASTRA 1C
Catalog number: 22653
Epoch time:      103023.00000000
Element set:     784 
Inclination:        0.0122 deg
RA of node:       319.8851 deg
Eccentricity:    0.0002995
Arg of perigee:    65.1991 deg
Mean anomaly:     116.0096 deg
Mean motion:    1.00273184 rev/day
Decay rate:    1.2299E-006 rev/day^2
Epoch rev:            3062
Checksum:              240

Satellite: METEOR 2-21
Catalog number: 22782
Epoch time:      103031.09315676
Element set:     505 
Inclination:       82.5447 deg
RA of node:       229.5481 deg
Eccentricity:    0.0023288
Arg of perigee:    40.4542 deg
Mean anomaly:     319.8378 deg
Mean motion:   13.83530710 rev/day
Decay rate:    6.7000E-007 rev/day^2
Epoch rev:           47553
Checksum:              306

Satellite: KITSAT B
Catalog number: 22825
Epoch time:      103031.54676481
Element set:     475 
Inclination:       98.2761 deg
RA of node:        62.1606 deg
Eccentricity:    0.0007885
Arg of perigee:   318.6909 deg
Mean anomaly:      41.3679 deg
Mean motion:   14.28936132 rev/day
Decay rate:    1.2100E-006 rev/day^2
Epoch rev:           48730
Checksum:              418

Satellite: POSAT 1
Catalog number: 22826
Epoch time:      103029.61952556
Element set:     300 
Inclination:       98.2776 deg
RA of node:        61.4369 deg
Eccentricity:    0.0008947
Arg of perigee:   324.3473 deg
Mean anomaly:      35.7107 deg
Mean motion:   14.29157970 rev/day
Decay rate:    1.3799E-006 rev/day^2
Epoch rev:           48707
Checksum:              337

Satellite: ITAMSAT
Catalog number: 22828
Epoch time:      103030.65453853
Element set:     414 
Inclination:       98.2742 deg
RA of node:        62.6856 deg
Eccentricity:    0.0009535
Arg of perigee:   298.9415 deg
Mean anomaly:      61.0811 deg
Mean motion:   14.29501293 rev/day
Decay rate:    9.4000E-007 rev/day^2
Epoch rev:           45542
Checksum:              303

Satellite: EYESAT A
Catalog number: 22829
Epoch time:      103031.15702289
Element set:     438 
Inclination:       98.2761 deg
RA of node:        63.7587 deg
Eccentricity:    0.0009217
Arg of perigee:   297.3296 deg
Mean anomaly:      62.6943 deg
Mean motion:   14.29757886 rev/day
Decay rate:    1.6200E-006 rev/day^2
Epoch rev:           48742
Checksum:              448

Satellite: METEOSAT 6
Catalog number: 22912
Epoch time:      103028.96775464
Element set:     656 
Inclination:        2.6273 deg
RA of node:        82.4994 deg
Eccentricity:    0.0001001
Arg of perigee:   238.1902 deg
Mean anomaly:     164.8967 deg
Mean motion:    1.00276372 rev/day
Decay rate:    5.4999E-007 rev/day^2
Epoch rev:            3209
Checksum:              318

Satellite: GOES 8
Catalog number: 23051
Epoch time:      103029.38353817
Element set:     582 
Inclination:        0.2495 deg
RA of node:       103.9133 deg
Eccentricity:    0.0000388
Arg of perigee:    39.9065 deg
Mean anomaly:      47.0468 deg
Mean motion:    1.00282739 rev/day
Decay rate:   -2.5599E-006 rev/day^2
Epoch rev:            3960
Checksum:              303

Satellite: ASTRA 1D
Catalog number: 23331
Epoch time:      103026.05837964
Element set:     806 
Inclination:        0.0597 deg
RA of node:       230.8174 deg
Eccentricity:    0.0003549
Arg of perigee:    58.1812 deg
Mean anomaly:     241.1087 deg
Mean motion:    1.00271596 rev/day
Decay rate:    1.4099E-006 rev/day^2
Epoch rev:            3063
Checksum:              383

Satellite: RADIO ROSTO
Catalog number: 23439
Epoch time:      103029.24918450
Element set:     684 
Inclination:       64.8160 deg
RA of node:        74.3419 deg
Eccentricity:    0.0147359
Arg of perigee:   119.1840 deg
Mean anomaly:     242.3917 deg
Mean motion:   11.27547749 rev/day
Decay rate:   -4.1999E-007 rev/day^2
Epoch rev:           33330
Checksum:              326

Satellite: NOAA 14
Catalog number: 23455
Epoch time:      103030.85486536
Element set:     506 
Inclination:       99.1876 deg
RA of node:        48.9302 deg
Eccentricity:    0.0008637
Arg of perigee:   283.7336 deg
Mean anomaly:      76.2874 deg
Mean motion:   14.13289876 rev/day
Decay rate:    1.2799E-006 rev/day^2
Epoch rev:           41683
Checksum:              356

Satellite: HIMAWARI 5 (GM
Catalog number: 23522
Epoch time:      103030.18453899
Element set:     77 
Inclination:        1.7234 deg
RA of node:        83.6295 deg
Eccentricity:    0.0000323
Arg of perigee:    46.4388 deg
Mean anomaly:     205.3212 deg
Mean motion:    1.00263904 rev/day
Decay rate:   -2.9299E-006 rev/day^2
Epoch rev:            2869
Checksum:              411

Satellite: HOT BIRD 1
Catalog number: 23537
Epoch time:      103013.80550721
Element set:     533 
Inclination:        0.0070 deg
RA of node:       236.2796 deg
Eccentricity:    0.0008090
Arg of perigee:    86.9786 deg
Mean anomaly:      92.5958 deg
Mean motion:    1.00275871 rev/day
Decay rate:    1.0700E-006 rev/day^2
Epoch rev:            2861
Checksum:              279

Satellite: GOES 9
Catalog number: 23581
Epoch time:      103030.38539671
Element set:     497 
Inclination:        0.3162 deg
RA of node:       278.0038 deg
Eccentricity:    0.0012653
Arg of perigee:   254.1315 deg
Mean anomaly:     314.2452 deg
Mean motion:    1.00048429 rev/day
Decay rate:    1.1500E-006 rev/day^2
Epoch rev:            2817
Checksum:              262

